Theta_e
305 305 306 306 306 306 306 305 305 305 305 306 307 307 307 307 309 310 310 310 310 311 311 312 312 312 312 313 313 313 314 314 315 316 318 318 317 318 317 316 316 316 316 319 322 322 320 321 322 323 325 327 325 327 328 326 327 329 327 326 329 329 323 315 313 320 326 328 329 329 329 329 324 323 325 323 320 318 315 316 315 312 310 312 313 311 316
305 305 305 306 306 306 306 305 305 305 305 306 306 306 306 306 307 308 308 309 309 310 310 310 310 311 311 311 312 313 313 313 314 315 316 318 318 318 317 317 316 317 317 318 319 319 317 319 322 323 324 325 326 327 325 327 329 326 326 329 325 323 321 316 313 315 319 321 322 322 324 325 323 323 326 324 323 323 321 319 319 315 311 312 313 310 315
305 306 306 306 306 306 306 306 305 305 305 306 306 306 306 306 307 307 308 310 310 309 309 309 310 310 310 311 312 313 314 313 314 314 315 316 318 318 319 318 317 317 317 316 317 318 316 317 321 322 322 324 326 326 326 328 325 326 343 349 329 322 325 321 313 312 315 314 314 314 318 321 323 324 325 325 325 322 318 314 312 312 314 315 312 311 318
305 306 306 306 306 306 306 306 305 305 305 305 306 306 306 306 307 308 308 309 309 310 309 309 310 311 313 314 315 314 315 315 314 315 316 315 316 317 318 318 317 316 317 316 316 317 316 316 318 320 322 324 326 327 327 326 327 341 355 351 331 326 329 326 321 316 315 316 319 323 324 319 317 320 322 324 325 324 320 312 308 311 314 313 317 320 321
305 305 306 306 306 306 306 305 305 305 305 305 306 306 306 307 307 308 308 308 309 309 310 311 313 314 313 314 315 314 314 314 313 314 316 316 316 316 317 318 319 316 315 315 315 315 317 318 317 319 320 322 324 327 326 325 336 350 346 334 331 330 324 326 328 323 321 325 328 330 327 320 317 318 320 321 324 324 319 312 312 318 313 308 322 335 323
304 305 306 306 306 306 306 305 305 305 305 305 306 305 305 307 307 307 308 308 308 308 309 310 312 311 311 311 312 312 313 313 312 313 314 315 315 316 317 318 319 320 319 317 318 317 316 315 316 318 319 321 323 325 325 325 335 343 333 326 333 329 320 324 327 322 325 329 328 330 329 325 323 322 320 321 323 321 317 315 319 323 315 310 326 339 328
304 305 305 306 306 306 306 305 305 305 305 305 305 305 305 307 306 306 307 308 308 308 308 309 309 309 310 311 310 310 311 312 312 312 313 314 313 314 316 316 316 318 318 319 322 323 320 319 319 319 319 319 320 322 325 325 328 331 326 326 331 326 322 329 327 321 324 327 328 330 329 326 324 324 324 324 324 322 319 321 323 323 321 321 328 335 333
305 305 305 305 306 306 306 306 305 305 305 305 305 305 305 306 306 307 308 307 308 308 308 308 309 309 310 311 309 309 309 311 312 311 312 313 312 311 313 314 314 315 316 317 321 321 319 319 321 322 322 323 322 321 322 324 325 326 325 327 329 323 322 331 329 320 320 326 329 328 327 327 323 322 327 326 324 324 321 322 323 322 322 325 325 328 329
304 304 305 305 305 305 306 306 305 305 305 305 305 305 306 306 306 307 308 308 308 307 308 308 309 309 310 310 309 308 309 310 310 311 311 311 311 311 311 312 313 313 314 316 317 317 317 317 318 318 319 321 323 323 323 324 323 324 324 324 327 325 324 328 327 318 317 324 327 325 326 326 320 319 325 325 322 323 322 324 325 322 321 322 320 318 325
304 304 304 304 304 304 305 305 305 305 305 305 305 305 306 306 306 307 308 308 308 307 308 308 308 309 309 309 310 309 309 308 308 310 311 310 311 311 311 312 312 313 314 315 315 315 314 315 316 317 319 320 321 323 325 325 322 322 324 323 325 327 324 322 323 317 316 322 325 324 323 320 316 319 325 326 326 327 326 327 328 327 324 321 317 319 328
305 304 304 303 302 303 304 304 305 305 305 305 305 305 306 307 307 307 307 308 308 307 308 307 307 308 308 308 309 308 308 309 308 309 310 310 310 311 310 310 311 312 312 313 313 313 314 315 316 318 320 321 322 322 325 326 323 324 326 324 324 328 324 324 324 317 315 322 325 323 320 316 319 326 329 329 329 327 326 326 329 329 328 325 324 326 331
305 304 304 303 302 303 304 304 304 305 305 304 304 305 305 306 307 307 306 307 308 306 307 307 307 307 307 307 308 308 308 309 309 309 309 309 309 310 310 310 311 312 312 311 312 314 315 316 317 320 321 322 323 323 324 327 325 325 327 326 326 328 326 326 325 318 315 320 322 318 316 320 327 332 333 331 330 330 329 329 330 330 329 329 330 331 331
304 304 304 303 303 303 304 305 304 304 305 304 304 305 305 306 307 306 306 307 307 306 307 307 307 307 307 307 307 308 308 308 309 309 309 309 309 309 310 309 310 310 311 311 312 314 316 318 320 322 323 323 323 324 324 326 327 325 327 328 329 331 329 325 323 321 319 318 318 318 320 327 331 333 333 332 332 332 328 326 329 330 329 330 334 335 335
304 304 304 303 304 304 304 305 305 305 305 305 305 305 305 306 307 306 306 306 307 306 306 307 307 307 307 307 307 308 308 308 309 309 309 309 309 309 309 310 310 310 310 312 314 316 317 319 321 323 325 324 324 325 325 325 326 327 326 328 329 331 331 327 322 321 321 317 316 321 324 326 330 332 334 334 334 334 329 325 329 332 331 332 336 338 338
304 304 304 303 303 304 304 305 305 305 305 305 304 304 305 305 306 306 306 306 306 306 306 306 307 307 307 307 307 308 308 309 310 311 310 310 309 309 309 309 310 310 311 313 315 316 317 320 323 326 327 326 323 323 324 325 326 327 326 328 328 329 333 332 324 321 323 320 317 321 321 320 327 333 338 338 334 335 336 329 329 334 335 336 339 339 339
304 304 304 303 304 304 305 305 305 305 305 305 304 304 304 305 306 306 305 305 306 306 306 306 307 307 307 307 307 307 308 309 310 310 310 311 311 310 310 310 310 311 311 313 314 315 317 321 325 326 327 327 324 321 322 323 324 325 325 326 326 327 332 334 327 322 324 322 319 321 320 322 333 339 340 337 333 335 337 327 326 338 344 341 342 341 341
304 304 303 304 304 305 305 305 305 305 305 305 304 304 305 305 305 306 306 305 306 306 305 305 306 306 306 307 307 308 308 309 310 310 311 312 312 310 310 311 311 311 311 313 314 314 317 320 324 326 326 326 325 323 322 320 319 321 323 325 325 326 329 330 325 322 325 325 322 322 322 329 342 342 336 335 334 336 333 322 324 343 349 342 342 343 342
304 304 304 305 305 305 305 305 305 305 305 305 304 304 305 305 304 306 307 306 306 306 305 305 306 306 307 308 307 308 308 308 309 310 311 311 311 310 312 312 312 312 312 312 312 314 317 320 323 326 326 325 324 326 326 324 322 321 321 322 323 323 325 326 323 321 324 325 323 322 324 334 343 340 334 336 336 332 325 323 333 348 346 339 341 342 342
304 304 304 305 305 305 305 305 304 304 305 305 305 305 305 305 305 306 307 306 305 306 306 306 306 306 307 307 307 307 307 308 310 310 309 310 311 311 311 311 311 312 311 311 312 314 319 320 320 324 327 326 325 327 328 329 329 328 325 321 319 319 320 322 322 321 321 323 323 321 325 334 339 337 334 334 332 327 328 335 344 344 339 338 341 341 343
304 304 304 304 305 304 305 305 304 304 305 305 305 305 305 305 306 306 306 306 305 306 305 305 306 306 306 307 306 307 307 307 309 310 309 310 311 310 310 312 314 313 312 313 314 316 320 322 321 323 326 327 327 329 331 331 330 330 330 328 327 325 319 315 319 323 321 321 321 320 324 335 337 335 336 335 333 334 340 345 342 339 339 340 341 342 344
304 304 304 304 304 304 304 304 304 304 305 305 304 304 304 305 306 306 305 304 305 306 306 306 307 307 307 307 307 307 307 307 308 309 309 310 310 309 310 313 314 314 315 316 316 318 322 323 324 324 325 326 329 331 333 333 330 329 332 335 337 336 326 319 322 326 321 317 320 324 330 337 337 335 337 338 338 341 344 342 340 341 343 342 343 345 346
304 304 304 304 304 304 304 304 304 305 305 304 304 304 304 304 306 306 304 304 304 306 306 306 307 307 306 307 307 307 307 307 307 308 308 309 309 309 310 311 311 313 315 315 317 320 323 323 325 325 325 327 329 330 331 333 333 331 332 336 338 340 337 332 335 338 329 325 329 334 338 339 337 336 337 338 339 340 340 339 342 344 343 343 343 344 343
304 304 304 304 304 304 304 304 304 304 304 304 304 304 304 305 305 305 304 304 304 305 306 307 307 307 307 307 307 307 307 307 307 308 308 308 308 308 309 310 310 311 314 315 317 319 321 322 323 325 325 327 329 330 331 333 334 332 332 334 336 337 338 339 342 344 341 338 339 339 339 337 335 335 336 336 336 338 339 341 343 342 341 343 343 341 341
304 304 304 304 304 304 304 304 304 304 304 304 304 304 304 304 304 304 305 306 305 306 307 307 307 307 307 307 307 307 307 307 308 308 308 308 308 308 308 310 310 310 313 315 317 317 318 320 322 323 324 326 328 330 331 332 333 334 334 336 336 336 336 338 342 342 342 343 342 338 337 338 336 335 336 335 334 336 338 341 341 340 341 343 343 342 343
303 303 303 303 304 304 304 304 304 304 304 303 304 304 304 304 304 305 306 307 307 306 306 307 306 307 307 307 307 307 307 308 308 308 308 308 308 307 308 309 310 311 312 313 314 316 316 318 319 321 323 325 327 329 330 331 332 333 334 336 338 337 337 339 342 342 342 343 344 340 336 337 336 336 336 335 334 336 337 338 338 339 341 342 342 343 345
303 303 304 303 303 303 304 304 304 304 303 303 303 304 304 304 305 306 306 306 306 306 306 306 306 306 307 307 307 308 307 307 308 308 309 309 308 308 308 308 309 310 310 310 312 315 316 317 318 320 321 323 324 326 328 329 330 331 333 335 335 336 338 339 340 342 343 342 342 341 338 338 336 335 334 334 334 335 335 335 336 336 337 338 338 340 341
303 303 303 304 304 303 303 303 303 303 303 303 303 304 304 304 305 306 306 305 305 306 307 307 306 306 307 307 307 307 307 307 308 308 308 308 308 308 308 308 308 309 309 310 312 314 316 316 317 318 319 320 320 322 325 328 331 332 334 335 335 336 339 339 340 343 344 342 342 343 343 340 337 333 332 332 332 332 332 332 333 333 333 334 333 333 334
304 304 304 304 303 303 303 303 304 304 303 303 303 305 305 305 305 305 305 304 305 307 307 306 306 306 307 307 307 307 307 307 307 308 308 308 308 309 308 309 309 309 309 311 313 315 316 317 317 317 318 319 320 321 324 328 332 334 335 335 335 336 337 338 340 341 341 340 340 341 340 339 336 334 333 332 331 331 330 330 330 330 329 329 329 329 329
303 304 304 303 303 303 303 303 303 303 303 303 304 306 307 306 306 305 305 305 306 306 306 306 306 306 307 307 308 308 309 308 308 308 308 308 309 309 309 309 309 310 310 312 314 316 317 316 316 316 317 318 319 321 323 327 332 334 335 334 334 334 336 337 337 338 339 338 338 337 335 334 333 331 331 331 331 330 330 329 329 328 327 326 326 326 326
303 303 303 303 303 303 303 303 303 303 303 304 305 305 306 307 307 305 305 306 306 306 306 306 306 307 307 307 308 309 309 309 310 308 307 307 308 308 309 310 310 310 311 312 314 316 316 316 316 316 316 316 319 321 323 327 331 333 332 332 332 333 335 336 335 336 338 336 334 333 332 330 329 328 328 329 329 328 328 328 328 328 327 327 327 326 325
303 303 303 302 302 303 303 303 303 303 303 304 305 306 306 308 307 306 305 305 305 306 307 307 307 307 307 308 309 310 310 310 310 309 308 307 307 308 309 310 310 310 312 313 315 316 315 315 316 316 317 317 320 322 324 326 329 331 331 332 332 332 333 334 334 335 336 334 332 331 330 329 328 327 326 327 328 327 326 327 327 327 328 327 326 325 324
303 303 303 302 302 302 302 302 302 302 303 305 305 305 306 306 306 305 305 304 304 305 306 307 308 308 308 309 310 310 311 311 310 309 309 308 308 308 309 309 310 311 312 315 317 317 316 315 315 316 318 320 321 322 325 327 329 330 331 330 330 328 329 331 333 334 334 334 333 333 331 329 327 326 325 326 326 325 325 325 325 325 327 327 326 325 324
302 302 303 302 302 302 302 302 301 302 302 303 303 303 304 304 304 304 304 304 305 306 307 307 308 308 309 310 311 311 312 313 311 309 310 310 309 308 309 309 310 312 312 316 319 319 317 315 317 319 320 322 323 324 327 329 330 331 330 327 327 326 325 327 331 334 334 333 333 333 332 329 327 326 326 325 324 323 323 322 322 323 324 324 324 324 324
301 302 303 303 303 303 302 302 302 302 303 305 305 305 306 305 304 304 304 305 306 306 306 307 307 309 310 311 311 312 312 314 313 311 312 312 310 310 311 310 311 313 313 315 319 319 316 316 320 323 324 325 325 325 326 327 328 329 327 325 324 324 323 323 327 330 331 330 330 331 331 329 328 328 327 326 325 324 322 321 321 322 323 323 322 324 325
302 303 304 304 304 304 303 303 304 305 306 307 308 308 307 306 305 305 305 306 307 307 307 308 308 309 311 311 312 313 312 314 314 315 315 315 313 314 315 313 313 314 315 315 316 316 316 318 322 325 326 326 325 324 325 327 328 328 326 323 321 321 322 323 324 325 326 326 326 327 327 326 325 326 326 326 326 326 325 323 322 322 323 324 324 325 326
303 304 305 305 305 306 306 307 306 307 308 308 308 308 306 305 306 307 307 307 307 307 308 309 309 309 311 311 311 312 313 315 315 316 317 317 317 316 316 316 315 315 315 315 314 316 319 322 324 327 327 325 324 324 326 328 328 327 325 323 321 319 319 320 322 323 324 325 325 325 324 324 325 326 326 325 325 325 326 326 325 324 325 326 325 324 325
305 305 305 306 308 309 309 309 309 309 309 308 307 307 306 306 307 309 309 308 308 307 307 308 309 310 311 311 311 312 314 316 317 316 317 318 319 317 316 316 317 315 314 315 317 319 323 324 326 329 329 326 325 327 327 327 327 326 324 324 323 321 320 319 320 323 324 324 325 326 325 324 325 325 324 324 324 324 324 325 324 325 326 326 325 324 325
306 307 307 309 310 310 310 310 310 309 308 307 307 308 308 309 309 309 310 310 309 308 308 308 309 310 312 312 312 312 314 316 317 316 317 318 319 319 316 316 316 315 317 320 321 322 324 326 328 329 329 327 326 327 326 326 327 326 324 323 322 322 322 321 321 323 323 324 325 326 326 325 326 325 324 324 323 323 323 324 324 324 324 325 326 327 328
308 309 309 310 310 310 310 311 310 309 309 308 308 309 310 310 310 311 312 312 311 311 310 310 310 311 313 314 314 315 315 315 316 317 317 318 320 319 317 316 316 318 321 324 325 324 325 327 328 328 327 327 326 326 326 326 325 323 322 322 321 320 321 321 322 323 324 324 324 325 325 325 325 324 324 324 323 322 322 323 323 323 323 323 324 326 328
310 310 310 310 310 310 310 311 310 310 310 310 310 311 311 311 311 312 313 312 312 312 312 311 312 313 313 314 317 318 317 316 318 320 319 319 320 321 320 319 318 320 323 325 326 326 326 327 326 325 326 327 326 325 325 326 325 322 321 322 322 321 321 321 321 322 323 323 323 323 323 323 323 322 323 323 322 322 322 322 322 322 323 324 324 324 326
309 309 309 309 310 310 310 311 312 312 312 312 311 311 312 312 312 314 314 314 314 314 313 313 314 316 315 315 318 318 317 318 321 322 320 320 321 322 323 322 320 321 323 324 325 326 327 326 324 324 325 327 326 324 324 326 326 326 324 323 322 322 322 322 322 322 322 322 323 322 321 321 321 321 322 322 322 322 323 322 323 323 323 324 325 325 325
308 308 307 308 309 310 311 312 313 313 312 312 312 312 312 313 314 315 315 315 316 316 315 314 315 316 316 316 318 318 318 319 321 322 321 321 321 322 323 322 322 323 325 325 324 326 327 326 324 325 327 328 326 325 324 325 326 326 326 324 322 322 322 322 322 321 321 321 322 322 321 321 321 322 323 323 323 323 323 323 324 324 324 324 325 325 326
308 308 308 309 310 311 312 312 311 312 312 311 312 313 314 314 315 316 316 315 316 317 316 315 315 317 318 319 319 319 319 319 321 322 322 322 321 322 322 323 323 324 325 325 325 326 327 326 326 327 328 328 326 324 324 324 325 326 326 324 322 322 322 321 321 321 320 321 321 321 321 321 321 322 323 322 322 323 323 324 324 324 324 325 326 326 326
311 310 309 310 310 310 311 311 311 312 312 312 313 314 315 315 315 316 316 315 315 316 316 315 316 319 320 320 320 320 320 321 322 323 322 322 322 323 324 323 323 324 324 325 326 327 327 326 327 328 327 325 324 324 323 323 324 325 325 323 321 321 321 321 321 321 321 321 321 321 322 323 323 322 323 323 323 323 323 324 324 324 324 325 326 326 326
312 309 307 307 308 310 311 311 311 312 313 314 314 315 316 316 316 316 315 314 314 315 315 316 317 319 319 320 320 320 321 322 323 323 323 323 323 323 323 322 322 324 325 325 325 326 326 326 327 327 326 325 325 325 324 324 324 325 324 323 322 322 321 321 322 322 322 322 322 322 322 322 322 322 322 323 322 323 323 323 324 324 325 326 326 326 326
312 309 307 307 309 310 310 310 311 312 314 315 314 314 315 315 315 316 316 315 315 315 315 316 318 319 319 319 320 320 321 321 322 322 323 323 322 321 321 322 322 324 325 324 324 324 325 326 327 326 325 325 325 325 325 324 324 324 324 323 323 322 321 321 321 322 322 322 322 322 322 322 322 322 322 322 323 323 323 323 323 324 325 325 326 326 326
312 310 310 310 310 311 312 313 314 315 315 315 314 314 313 313 315 317 317 316 315 316 316 316 318 319 319 320 320 320 321 321 321 321 321 323 322 320 321 323 324 324 324 324 323 322 323 325 326 325 325 325 326 326 326 326 325 324 324 323 322 321 321 321 321 321 322 322 322 322 322 322 323 322 323 323 323 323 323 323 323 324 324 324 324 325 325
313 311 311 312 312 313 315 316 316 315 315 317 318 317 315 316 317 318 317 316 316 316 316 316 319 320 320 321 321 321 320 321 321 320 320 321 321 320 320 323 325 324 323 323 323 323 322 323 324 324 325 326 326 326 327 327 325 322 322 322 321 320 321 320 320 320 321 321 321 322 321 322 322 322 322 322 322 322 322 322 322 322 323 323 323 324 324
312 312 312 314 315 315 316 317 317 317 318 320 320 319 319 319 319 318 317 317 317 316 316 317 319 320 321 320 320 320 320 321 321 320 321 322 322 322 322 323 324 323 323 324 324 323 322 323 324 324 324 325 326 325 325 326 325 322 321 320 320 320 320 320 320 320 321 320 321 321 321 321 321 321 321 321 321 321 321 321 320 321 321 322 322 322 322
312 312 312 313 316 316 316 315 317 318 319 320 320 320 320 321 320 319 318 318 318 318 318 319 318 318 319 318 318 319 320 320 321 320 321 322 322 322 323 324 323 322 323 324 324 324 323 324 325 325 325 324 324 325 325 326 325 323 320 319 320 320 320 319 319 320 321 320 320 320 320 320 320 320 320 320 320 319 319 319 319 320 320 320 320 321 321
311 311 311 312 315 316 314 314 317 318 318 319 320 321 322 321 320 320 321 322 321 320 321 320 319 317 317 318 319 319 320 320 320 320 321 321 321 321 322 323 323 322 321 322 324 325 324 324 325 325 325 325 324 324 325 326 326 324 321 320 321 320 320 320 320 320 320 320 319 319 319 319 319 318 319 319 319 318 319 319 318 318 318 319 319 319 319
311 312 312 313 314 315 314 314 316 317 317 318 320 321 323 322 321 322 322 323 322 321 320 320 319 318 318 319 320 321 320 319 320 320 320 320 320 321 322 322 322 322 321 321 321 322 323 325 325 325 324 324 324 324 324 325 325 323 321 322 322 321 320 320 320 319 319 319 319 319 319 319 318 317 318 318 319 320 321 321 318 317 317 317 318 318 318
Wind_Speed
24 23 22 21 20 20 20 20 20 21 21 19 18 17 10 7 8 16 29 30 19 11 10 10 10 11 13 16 18 17 15 16 17 18 19 18 15 15 15 18 18 16 16 17 16 15 13 15 18 15 16 19 18 17 19 21 20 16 12 15 16 12 8 9 10 9 12 16 17 19 21 19 16 15 15 16 17 17 14 10 9 10 12 12 11 10 9
24 24 23 22 21 21 20 20 20 20 18 17 17 12 7 8 10 13 26 30 19 11 11 11 10 11 16 18 20 19 18 18 19 18 18 16 15 16 15 17 19 17 17 17 16 16 13 14 19 17 14 15 19 23 24 20 17 15 12 11 12 10 9 10 9 8 10 13 14 16 17 16 12 12 16 17 20 23 20 14 9 9 14 16 13 9 8
24 24 23 22 21 21 20 20 19 19 18 16 15 10 6 9 9 8 16 21 15 11 11 11 11 14 17 19 19 17 14 16 19 21 21 19 16 16 15 16 17 16 18 19 19 19 16 13 14 15 15 15 16 23 25 20 18 14 8 8 11 11 10 10 10 11 11 11 11 11 12 13 11 14 18 20 22 25 20 13 10 9 11 15 14 9 6
25 24 23 21 21 20 20 20 19 18 16 15 14 12 7 6 7 7 8 10 9 10 12 14 14 13 12 11 13 14 13 12 16 18 19 22 22 18 17 18 18 16 17 18 18 21 21 17 14 14 15 14 13 19 22 21 18 7 4 3 10 10 10 12 13 13 12 10 10 10 12 13 14 18 21 21 22 23 18 12 12 11 9 10 10 8 9
26 25 23 21 21 20 19 19 18 17 15 14 13 11 7 5 7 8 7 6 7 8 9 10 8 7 8 7 9 15 16 14 15 15 12 13 16 15 15 16 17 17 18 16 16 20 22 21 19 18 17 15 15 20 22 19 14 7 3 4 7 7 11 17 19 18 18 15 14 17 17 17 18 20 22 22 22 23 20 16 15 13 11 11 9 8 11
28 26 23 21 20 20 19 18 18 17 15 14 11 7 6 6 7 8 9 8 8 9 11 11 8 8 9 8 9 16 18 15 14 13 12 13 13 8 10 14 14 15 16 13 12 15 18 20 20 20 17 16 17 17 20 21 16 12 10 10 7 7 12 16 20 23 24 23 21 21 19 17 18 20 21 22 23 24 22 20 19 16 11 11 11 10 12
28 27 25 23 21 20 19 18 17 17 15 14 11 7 6 7 7 8 9 9 10 13 16 17 16 14 12 9 9 13 16 17 15 12 12 13 11 9 10 16 19 19 18 14 10 10 10 12 15 16 15 17 17 13 15 20 19 17 16 12 8 8 9 14 19 20 25 26 24 24 22 18 19 20 19 20 22 24 23 21 22 20 17 18 17 13 12
27 27 26 24 22 21 19 18 17 16 16 15 12 9 8 7 6 6 7 8 10 13 15 16 14 13 11 10 10 12 14 18 16 12 12 13 10 10 12 15 17 19 19 16 12 13 17 16 14 15 14 13 14 12 12 16 17 18 16 12 10 9 7 11 15 13 15 21 24 25 25 21 20 19 19 21 21 23 24 21 20 20 19 22 22 14 11
27 27 27 26 24 22 20 19 17 16 15 13 10 10 11 11 11 9 6 7 10 11 12 12 11 10 8 9 11 12 14 16 16 13 13 14 13 11 11 13 15 16 17 17 16 17 20 21 21 21 18 14 13 12 13 15 15 17 16 13 11 11 9 10 11 9 12 17 21 25 25 22 23 22 21 23 23 21 20 18 17 17 17 18 18 14 10
27 28 28 27 24 22 22 20 18 15 15 14 9 9 11 11 12 10 5 6 9 9 10 12 10 9 9 9 11 14 14 14 13 11 10 12 14 12 9 9 10 13 15 16 18 20 22 24 23 20 18 18 18 16 16 19 17 13 14 15 13 12 10 9 10 10 11 15 16 17 18 18 18 18 21 22 20 19 19 14 14 18 17 14 13 11 8
27 27 28 26 23 22 22 21 19 17 17 16 11 10 12 11 8 6 4 7 9 8 8 10 9 10 13 12 12 14 15 14 12 10 9 11 14 15 12 8 7 10 12 14 17 19 21 23 22 18 18 20 20 17 19 22 19 11 10 12 13 14 13 10 9 10 10 14 15 13 13 14 12 12 17 20 20 21 20 16 17 20 18 14 12 13 11
26 26 26 25 23 21 20 20 19 18 19 18 15 15 16 13 9 5 4 7 10 8 8 9 11 13 16 17 14 14 14 14 12 11 12 13 16 17 15 11 9 8 9 12 17 18 18 19 20 18 18 19 19 18 20 21 18 12 11 8 8 12 13 11 9 9 9 11 14 14 13 13 12 11 13 16 19 21 21 19 21 22 18 17 17 15 15
25 25 24 23 21 20 18 18 18 18 19 17 16 17 16 13 8 5 4 6 9 9 9 11 14 15 17 18 18 16 14 14 12 12 14 15 17 19 16 12 10 8 7 11 15 16 14 13 14 15 14 14 15 16 18 19 16 13 11 9 7 9 10 11 10 9 9 9 11 13 10 10 13 14 14 15 16 19 19 18 20 22 21 17 9 6 8
24 23 22 21 19 18 17 17 16 17 17 17 17 19 16 13 9 5 3 5 7 9 10 11 12 13 14 16 16 14 14 14 12 12 14 15 16 18 16 13 11 7 4 7 10 10 8 7 7 9 9 8 9 10 13 16 16 15 14 12 10 8 7 8 11 11 10 10 10 10 9 10 13 13 11 10 10 11 13 12 13 16 17 13 10 10 11
23 22 21 20 18 17 16 17 16 16 16 17 19 19 17 15 12 7 3 4 7 9 9 9 10 11 12 14 13 11 11 10 8 9 14 16 14 13 14 14 12 6 2 3 4 4 5 5 5 6 6 6 6 6 7 10 12 15 16 13 11 9 6 7 9 9 8 9 10 10 10 11 12 9 5 4 4 4 5 6 6 6 8 10 8 8 9
22 21 20 18 16 15 15 15 16 16 16 17 18 17 17 16 13 10 5 4 6 7 7 9 11 11 10 11 14 13 9 7 5 6 10 13 12 10 12 14 10 5 4 4 2 2 3 4 4 5 6 7 7 6 6 6 7 11 14 14 13 11 7 6 7 7 8 9 10 9 9 8 7 5 4 6 2 5 5 6 5 2 6 9 8 8 9
20 19 18 15 14 14 14 14 14 15 15 16 17 17 16 15 13 11 7 4 6 8 10 12 13 12 9 8 11 11 7 6 6 4 4 9 11 8 10 11 9 8 8 6 2 1 3 4 4 5 6 7 8 7 6 7 7 9 11 11 13 12 8 7 8 7 7 9 8 7 7 4 5 6 5 6 4 3 2 8 4 5 8 9 8 8 9
18 17 15 13 12 13 13 13 13 14 14 15 17 18 18 16 14 11 7 4 6 8 10 13 13 10 8 7 8 8 8 7 6 4 5 8 8 6 8 9 8 8 9 7 5 4 4 4 4 6 7 7 8 7 6 5 6 8 10 9 10 10 8 8 11 9 8 9 8 7 7 5 6 6 5 4 4 4 7 7 1 5 7 7 8 7 8
16 14 13 13 13 12 12 12 12 13 13 14 15 17 17 15 13 11 8 4 5 7 9 12 13 12 11 10 9 8 9 9 7 6 5 5 4 6 8 8 6 7 7 8 7 5 4 4 5 5 5 6 6 5 5 6 6 7 10 9 8 9 8 7 10 11 9 9 9 8 6 5 8 7 6 6 7 6 5 2 3 5 6 8 8 9 9
13 13 13 13 13 12 11 11 11 11 12 13 14 16 18 16 13 13 12 7 5 8 11 13 15 15 14 12 10 9 9 9 7 5 4 5 7 9 7 4 3 5 5 7 7 5 4 5 5 4 4 5 4 4 5 8 10 9 9 9 7 7 9 10 9 9 9 9 10 9 6 5 9 9 8 8 6 2 2 3 4 5 7 8 8 8 9
13 12 12 11 11 10 10 10 10 11 11 12 14 16 18 16 12 13 15 12 6 6 8 11 14 16 15 15 14 13 12 12 11 8 5 5 7 7 5 3 3 4 3 4 4 3 2 2 3 3 3 3 1 2 5 8 9 9 8 7 7 7 7 8 7 7 9 10 9 6 3 4 9 8 5 4 2 3 3 3 4 5 6 7 6 8 10
12 12 11 11 10 9 9 9 10 11 12 12 13 15 16 15 11 10 11 11 10 10 13 16 19 20 22 22 22 20 18 20 21 16 10 7 6 6 6 6 5 3 1 2 3 2 1 1 1 1 2 2 1 4 6 5 6 6 5 4 5 6 7 3 3 3 5 4 2 1 2 5 8 6 4 6 7 6 4 3 4 5 6 7 7 9 11
12 11 11 11 10 10 10 11 11 12 12 12 13 15 15 14 13 12 10 8 10 14 18 20 19 19 21 23 25 24 24 25 26 22 15 10 7 6 7 7 6 4 1 1 2 2 1 1 1 2 2 2 1 4 6 5 4 4 5 4 7 9 11 5 2 4 6 4 5 6 5 5 6 5 5 7 8 6 6 5 4 5 6 8 8 8 8
12 12 11 11 11 11 11 11 11 12 12 13 14 16 16 16 16 14 10 6 6 7 11 12 11 10 13 17 19 20 20 22 23 22 19 14 8 6 6 3 3 3 2 1 2 3 3 2 1 1 3 2 1 3 4 3 2 3 5 5 5 6 8 5 3 5 5 3 1 6 8 6 5 6 6 6 9 8 6 6 6 6 7 9 9 9 9
13 13 12 12 12 11 11 11 11 11 12 12 14 15 16 16 15 12 8 6 5 5 6 8 9 13 18 21 20 19 19 21 21 20 20 17 13 10 7 2 1 3 4 4 4 3 3 3 1 2 4 2 1 3 4 2 3 4 4 5 5 4 5 5 5 6 4 5 8 4 13 13 10 10 9 9 9 11 8 8 8 8 9 11 11 11 11
14 13 13 13 13 12 12 11 11 12 12 12 13 15 16 17 14 10 7 6 5 5 6 8 9 12 15 16 15 16 16 16 17 18 18 18 17 15 12 8 7 7 6 5 5 4 3 3 3 3 4 2 2 4 4 3 4 3 3 7 9 7 5 3 4 5 3 4 8 3 14 15 14 14 13 13 13 12 11 11 12 12 13 14 15 15 14
15 14 14 14 13 13 13 12 12 12 12 13 13 15 16 17 14 11 9 8 5 4 6 7 7 10 14 16 19 21 19 16 15 15 16 17 17 17 14 10 8 7 5 5 6 4 3 4 4 4 5 4 4 5 4 2 3 3 5 8 9 6 2 4 4 2 2 1 4 2 7 10 12 14 15 15 15 15 16 16 16 16 15 15 17 17 16
15 15 15 14 14 14 13 13 13 13 13 14 14 15 18 19 16 14 15 14 9 5 6 8 8 11 15 17 19 18 16 16 16 15 15 16 18 17 14 11 8 6 5 6 6 4 3 5 4 3 4 3 4 4 3 2 3 4 5 6 6 2 2 4 4 1 0 2 2 1 6 9 10 12 14 14 13 14 17 17 17 16 16 16 17 16 16
16 15 15 15 15 14 14 14 14 14 14 14 15 16 16 15 13 11 12 12 10 6 6 8 9 9 10 12 13 12 12 14 17 18 16 15 15 15 12 10 8 7 6 6 6 4 4 4 4 4 3 2 3 4 3 2 3 4 4 5 4 2 3 5 4 2 2 1 3 4 8 11 11 12 13 12 11 13 15 16 16 16 15 16 17 16 16
16 16 16 16 16 16 15 14 14 14 14 14 14 12 9 6 5 5 5 6 7 6 5 6 7 7 8 12 14 13 13 14 16 17 15 13 12 11 10 9 8 7 6 6 5 4 3 3 3 5 5 3 3 3 3 3 3 4 4 4 2 1 4 7 5 2 1 5 6 7 10 12 12 11 12 12 11 12 13 14 15 15 15 15 15 15 15
17 17 17 17 17 17 17 16 15 14 14 13 10 6 3 1 1 3 4 8 9 7 5 6 7 7 8 9 10 10 12 13 12 11 12 12 10 10 11 9 7 7 7 6 3 2 3 3 3 4 4 2 2 2 3 4 4 4 4 2 2 4 6 7 6 4 1 6 8 8 9 10 9 9 10 11 11 11 11 12 13 13 13 15 15 13 13
19 19 19 18 18 18 18 18 17 15 14 14 12 10 11 12 11 12 13 13 11 7 5 5 6 6 5 5 7 11 13 12 11 8 8 10 9 9 10 9 7 7 7 3 1 1 2 3 5 6 3 2 2 2 4 4 5 5 4 2 5 6 7 6 6 6 2 4 7 9 10 10 10 10 9 9 9 10 10 11 11 11 11 12 14 14 14
22 22 21 20 20 20 19 18 18 17 17 18 19 21 23 21 17 15 14 12 9 6 4 4 5 5 4 5 7 11 11 9 8 7 7 8 7 7 8 8 7 6 5 3 2 1 3 4 5 5 3 2 2 3 4 3 3 4 3 4 7 7 7 5 5 7 6 2 4 9 10 10 11 11 10 10 11 11 10 10 10 11 12 13 14 14 13
25 23 22 20 20 20 20 19 18 17 16 16 16 15 12 9 8 7 7 7 6 5 4 3 4 5 5 5 5 4 4 4 5 5 5 5 6 6 7 7 6 5 5 4 2 2 4 4 3 3 2 2 1 2 4 4 5 6 3 5 7 6 7 8 8 8 9 8 7 9 10 11 11 10 10 11 12 11 11 10 10 11 13 13 13 13 12
25 23 21 21 22 22 21 18 14 13 13 12 11 8 5 2 4 5 6 6 5 4 3 3 3 5 6 5 4 4 4 4 3 2 1 3 4 3 2 4 5 5 4 3 3 4 4 2 1 2 1 1 0 1 4 4 4 6 4 5 8 6 7 9 9 7 8 9 10 11 12 12 11 10 10 11 11 11 11 12 12 12 12 11 11 11 10
23 20 20 22 21 18 15 12 11 10 8 7 7 7 8 8 6 5 6 7 7 5 3 3 4 5 6 6 4 5 5 3 1 1 1 1 1 1 1 3 5 4 4 4 6 6 4 1 1 2 1 0 1 2 3 2 5 6 5 5 8 8 9 10 9 8 9 12 13 13 13 13 12 10 9 10 10 10 11 12 12 13 12 10 10 9 8
18 18 20 20 15 10 8 8 9 9 9 8 8 10 11 9 7 6 6 7 7 6 4 4 5 5 5 4 3 3 4 2 2 1 1 0 0 1 2 4 4 5 5 5 4 3 1 0 1 2 1 1 2 2 1 3 5 4 3 4 7 8 8 9 9 9 10 12 14 13 11 11 11 10 9 10 11 11 12 12 11 11 11 9 8 6 6
15 17 17 13 7 4 4 4 6 7 9 10 9 8 6 5 4 4 4 3 5 6 4 4 6 5 3 3 4 4 3 2 2 1 2 2 1 1 3 4 4 3 3 2 1 1 1 0 0 0 2 4 4 4 3 3 2 2 1 4 6 7 7 7 8 9 10 11 11 10 10 10 11 10 9 10 11 10 10 10 9 9 9 8 7 6 4
14 14 10 6 5 4 5 4 4 6 8 7 5 4 3 3 2 2 2 2 3 3 3 4 6 6 5 5 5 5 4 3 2 1 1 1 0 2 4 4 3 1 1 0 1 1 1 0 1 2 3 5 5 4 3 2 2 3 5 6 7 7 8 8 9 10 10 8 7 7 7 8 9 8 8 8 9 9 9 9 8 8 8 8 7 6 5
12 9 5 4 4 6 9 9 9 9 6 4 4 2 2 2 2 1 1 1 2 3 3 3 5 5 6 7 5 4 4 3 2 1 0 0 0 1 2 1 1 2 1 1 1 1 0 1 2 3 4 4 3 3 4 4 4 5 7 7 5 5 6 7 8 8 8 7 7 7 7 8 8 7 8 8 8 8 8 8 8 8 9 9 9 9 8
11 8 7 8 10 12 14 14 10 6 4 2 2 2 3 2 2 1 2 2 3 2 2 3 4 4 4 5 3 2 3 3 2 2 1 0 1 1 0 0 0 1 1 1 1 0 0 2 3 3 3 3 2 2 3 4 5 5 5 5 4 4 6 8 8 7 7 7 6 7 8 9 8 7 8 8 8 7 7 7 8 9 9 9 9 10 10
10 10 11 13 15 15 13 9 5 3 2 2 2 3 3 2 1 1 2 2 2 1 1 2 4 4 1 1 1 1 2 2 1 1 1 2 1 1 0 1 0 1 2 1 1 0 1 2 4 4 3 2 2 4 4 4 3 4 5 4 4 5 6 8 8 8 8 8 7 7 7 8 7 7 6 7 7 7 7 8 8 7 8 9 10 11 10
10 11 10 10 10 8 5 4 2 2 2 2 2 4 4 2 1 2 2 1 1 1 1 2 2 2 2 2 1 1 1 2 2 2 1 1 1 0 1 1 1 2 1 1 1 2 3 3 4 5 3 1 3 6 7 5 3 3 3 2 3 5 6 7 9 9 9 9 8 8 8 8 8 9 9 9 9 9 9 8 7 8 9 10 11 11 10
11 8 5 4 4 3 4 3 2 2 3 3 3 4 6 5 4 3 3 3 3 4 4 3 3 4 4 2 1 1 1 1 1 0 0 1 1 0 0 2 2 1 1 1 2 2 3 4 4 3 4 4 5 7 7 6 6 5 4 3 5 6 7 8 10 10 9 8 8 9 8 8 9 10 11 11 11 10 8 7 9 10 12 12 11 10 10
7 3 2 3 3 2 2 2 2 2 3 3 3 4 6 7 6 5 5 5 5 6 5 5 5 5 4 3 1 1 1 1 1 1 0 1 1 2 2 2 2 1 2 3 3 2 4 4 3 3 6 7 6 5 6 6 5 5 5 7 8 9 9 10 10 9 8 8 8 8 9 9 8 9 10 11 12 11 10 9 9 11 12 11 10 11 11
3 1 2 3 3 1 1 1 3 3 2 2 4 6 7 8 7 6 5 5 5 5 5 5 5 5 4 3 1 1 1 1 1 1 1 0 2 4 3 2 2 2 3 4 3 3 3 4 3 4 6 7 6 5 5 5 5 6 6 8 9 10 10 11 11 11 10 10 9 8 9 9 9 9 10 11 12 13 12 11 11 11 11 10 9 10 10
4 2 2 2 3 2 0 1 2 3 2 2 4 5 7 8 8 6 5 5 5 4 4 4 3 3 3 3 2 1 1 1 1 2 1 1 3 4 3 2 3 3 3 4 4 2 3 4 4 5 5 6 5 4 4 3 4 6 6 6 8 10 10 11 12 11 11 11 11 10 9 9 10 10 10 10 11 12 12 12 12 11 11 11 10 10 10
4 2 2 2 2 3 3 2 1 2 3 4 4 4 6 7 6 5 4 5 4 4 5 4 3 2 1 1 1 2 2 1 2 3 3 2 2 3 2 3 3 3 3 4 5 4 3 3 3 4 4 4 4 5 5 5 5 9 8 7 8 10 11 10 11 11 10 11 10 9 9 9 10 10 10 9 10 11 11 12 12 11 11 11 11 11 11
3 2 2 1 0 2 4 2 2 2 2 3 4 5 6 6 6 5 5 5 4 4 4 2 0 0 1 0 1 1 3 3 3 3 3 3 3 3 3 4 4 4 3 4 4 4 4 3 2 3 4 5 5 5 4 4 4 6 9 8 9 10 10 10 10 11 10 10 9 9 9 9 9 9 9 9 8 9 10 11 11 11 11 11 11 11 11
4 2 3 4 3 3 5 4 5 4 3 3 4 5 6 7 7 6 5 3 3 4 3 1 1 0 2 2 2 3 4 3 3 3 4 5 4 3 4 5 5 4 3 3 3 3 4 3 3 4 5 5 6 5 3 4 4 6 8 8 8 9 9 10 11 11 10 11 11 10 9 8 8 8 8 9 8 8 9 10 10 10 10 10 10 10 10
3 4 5 6 7 7 7 8 8 5 4 3 4 4 4 5 7 7 6 5 3 3 3 3 2 2 4 4 4 3 2 2 3 4 5 4 4 3 4 5 5 4 4 4 3 3 3 3 3 4 4 3 4 5 4 3 3 4 6 7 7 8 8 10 11 10 11 11 11 9 8 8 9 9 9 10 9 8 8 10 10 9 8 7 7 7 8
4 5 6 6 8 8 8 8 8 7 6 6 4 1 2 3 4 5 6 5 5 5 6 5 3 4 5 4 3 3 2 2 4 6 5 4 4 4 5 5 4 4 4 4 4 3 2 2 2 2 2 2 2 2 2 2 2 4 6 6 7 7 8 8 9 10 10 10 9 8 8 8 9 9 9 10 9 6 6 7 8 8 7 6 7 7 6
Wind_Direction
315 315 314 313 314 314 316 319 322 326 330 332 328 322 311 285 283 295 299 301 299 278 259 257 255 252 256 260 261 262 262 261 261 260 257 256 257 255 251 252 255 255 257 260 260 260 257 251 247 238 223 220 219 223 221 213 211 212 208 202 199 205 222 224 223 235 245 236 213 198 202 210 218 221 214 215 225 228 232 229 218 226 229 224 232 237 228
313 313 312 312 312 311 312 315 319 322 324 324 320 315 302 294 294 288 286 284 278 261 255 254 254 256 258 257 254 254 256 256 256 255 253 252 252 252 251 249 246 248 254 258 262 262 258 256 255 254 249 229 212 217 224 217 210 210 205 200 193 195 214 219 215 217 232 236 219 198 201 208 213 222 220 217 220 225 234 239 228 225 227 226 235 236 214
312 310 308 308 307 307 308 310 314 316 316 318 314 304 297 296 287 276 278 274 260 244 249 255 256 256 259 261 261 261 260 257 258 256 253 251 252 252 253 253 251 250 248 248 254 258 258 260 262 261 261 249 220 214 216 212 210 216 224 216 202 198 204 210 214 213 210 219 221 201 197 208 213 218 222 223 222 222 227 235 236 233 223 223 235 247 224
311 309 307 305 303 304 305 305 308 309 310 314 308 294 292 297 289 287 287 274 257 245 245 251 257 265 276 285 289 294 298 296 294 283 260 247 251 255 255 254 254 253 252 250 248 250 253 257 262 261 263 262 240 224 222 211 198 192 358 282 216 208 207 207 216 225 222 217 226 221 206 206 212 213 218 224 226 224 223 228 233 237 238 234 235 249 258
308 307 304 302 301 301 302 304 305 304 304 307 302 288 279 279 278 285 302 302 288 278 261 251 256 290 311 317 308 301 300 304 310 309 290 271 271 270 269 266 255 247 251 253 248 247 248 249 255 258 260 269 257 234 230 222 193 151 11 266 221 224 222 210 208 223 238 236 229 227 220 214 217 215 214 219 226 228 226 225 228 229 237 242 231 233 256
306 304 301 299 298 298 300 302 302 300 300 298 293 279 268 271 270 282 298 297 287 293 295 288 288 292 291 298 300 295 293 292 297 305 309 316 330 330 310 315 312 289 278 276 270 262 250 243 248 250 248 262 265 240 227 224 197 181 228 239 227 237 234 222 212 211 224 236 238 237 232 221 220 222 218 214 218 228 232 232 229 225 234 244 230 221 237
304 301 297 294 293 293 294 296 298 297 296 289 278 266 269 275 276 288 300 298 289 292 293 291 289 281 273 274 274 277 281 280 283 298 302 304 331 349 323 326 335 329 321 318 313 310 293 264 254 254 250 252 256 248 236 227 201 191 218 229 229 244 239 239 238 220 213 221 233 242 244 234 224 223 225 222 217 220 228 237 236 231 234 242 238 227 230
303 300 297 292 288 287 286 289 292 293 292 282 266 255 261 271 279 296 310 307 299 294 286 281 281 278 272 269 259 254 265 271 276 293 297 291 311 332 318 318 328 330 326 319 323 345 341 323 310 305 295 270 255 252 249 239 215 205 219 222 222 238 233 231 247 249 228 219 221 230 241 247 244 233 226 230 231 223 219 224 234 237 237 239 241 239 235
303 301 298 292 287 284 283 284 285 285 285 278 265 260 264 272 283 291 299 297 292 292 291 283 278 274 269 270 268 256 252 258 264 273 279 283 293 305 311 318 322 318 315 315 322 337 333 322 318 316 308 296 284 276 264 250 228 211 217 221 217 225 230 225 230 243 242 231 222 221 227 240 250 247 235 231 235 237 228 214 214 229 243 243 240 238 232
303 301 298 297 295 288 284 281 278 276 273 265 264 274 277 284 293 291 284 281 280 286 291 287 279 277 275 276 284 282 273 268 269 270 276 280 282 284 293 312 315 305 307 315 323 327 322 314 311 305 295 288 286 293 287 265 244 219 214 216 214 218 222 225 227 228 232 238 238 229 224 230 236 239 241 240 240 245 248 236 215 217 232 247 247 245 245
303 300 300 305 304 293 284 279 275 271 262 253 255 274 282 289 301 300 284 278 279 281 285 283 281 287 291 292 293 291 287 284 280 277 278 279 281 281 277 278 291 293 299 310 315 316 312 306 304 298 293 287 276 283 292 269 249 246 241 219 209 214 215 215 225 230 226 232 241 240 233 234 234 229 236 242 246 246 245 246 238 225 216 220 232 243 254
303 303 305 308 305 296 285 279 276 271 264 260 261 269 276 284 293 290 268 273 280 282 283 283 283 292 300 300 295 286 286 292 295 285 278 280 286 286 276 269 276 283 292 304 312 319 316 313 313 305 296 291 274 269 280 270 250 257 277 262 218 212 215 214 219 229 225 221 227 231 230 233 242 248 246 244 249 254 253 250 250 247 237 225 222 226 229
306 306 306 305 303 297 287 280 277 273 268 265 262 262 270 280 283 276 266 272 277 278 282 286 286 295 310 309 298 290 289 294 295 282 272 272 274 274 270 267 272 280 302 309 313 324 327 322 322 312 296 288 276 261 262 263 255 255 271 277 254 229 224 216 209 216 224 216 215 226 239 247 244 244 246 241 238 245 252 251 249 253 256 254 263 289 255
307 307 306 303 299 293 284 279 274 270 267 265 262 263 267 266 261 265 280 273 271 274 281 289 290 297 307 303 296 293 288 286 289 286 280 273 266 268 272 272 269 269 304 316 315 327 333 325 323 318 303 281 269 256 248 250 252 253 258 258 248 243 248 235 214 207 216 221 218 227 248 255 243 235 237 243 240 235 239 246 248 250 260 274 298 313 308
307 307 306 302 296 289 283 278 271 266 264 263 262 263 264 259 250 248 253 261 275 283 278 273 280 294 300 297 296 296 290 285 296 300 289 277 267 269 273 271 267 264 285 309 316 334 333 323 315 313 305 275 254 250 249 251 252 248 248 250 245 239 257 264 234 202 202 220 222 223 232 234 231 229 233 259 313 333 287 268 261 266 297 318 313 300 319
308 308 305 300 295 288 283 278 271 265 264 265 266 267 267 262 248 236 234 250 268 276 276 277 287 296 299 299 299 297 293 295 309 311 294 282 277 281 284 278 271 265 255 250 273 344 316 297 291 292 296 287 272 260 252 254 253 237 232 240 247 242 247 270 252 206 195 217 223 220 225 227 212 197 214 230 239 31 354 284 266 340 1 3 359 349 352
310 309 304 299 293 287 284 280 272 266 263 263 267 270 270 266 252 237 236 248 251 260 277 289 294 294 289 295 301 298 298 307 309 309 296 288 289 295 300 296 286 273 261 247 222 217 251 262 275 274 278 288 289 283 269 252 241 230 228 236 242 238 229 232 237 221 199 212 228 230 229 214 161 158 191 213 183 103 269 250 252 16 14 17 14 359 3
312 311 306 299 293 290 288 283 273 269 266 265 268 271 272 270 260 245 238 252 253 257 269 272 274 278 282 289 295 291 293 303 301 285 274 280 287 304 312 307 293 270 255 238 218 211 222 240 259 265 273 284 285 288 299 295 259 236 237 239 237 237 232 221 224 224 205 202 221 242 238 200 164 176 200 201 188 203 229 233 277 7 355 3 4 353 1
316 316 310 303 299 295 289 283 275 270 270 270 271 272 273 272 259 240 229 234 245 253 269 275 274 278 284 288 288 286 292 300 301 297 293 288 303 324 312 296 283 272 249 228 220 214 209 221 242 262 270 273 284 296 303 308 300 266 254 254 241 230 228 226 227 225 217 213 221 236 238 192 171 187 204 207 218 229 228 238 356 344 338 350 353 349 353
323 321 316 310 306 299 289 283 278 273 272 275 274 272 275 276 264 243 234 233 249 262 267 270 270 271 274 278 280 281 284 287 284 283 289 294 308 318 311 285 293 302 268 236 227 213 205 221 231 250 259 261 302 331 294 279 283 281 281 289 285 252 230 226 226 221 220 222 222 227 237 193 174 183 193 202 217 224 60 24 350 347 356 357 352 350 346
328 325 322 318 311 303 295 288 283 280 279 277 276 277 279 279 272 255 246 243 252 272 274 276 277 276 276 277 279 280 278 277 281 286 285 277 288 302 307 312 323 315 285 261 257 228 198 241 235 235 262 268 312 317 286 280 278 280 293 301 298 291 260 230 221 223 225 225 223 232 242 175 175 185 186 170 133 68 57 17 357 10 13 5 359 356 348
331 329 328 325 320 311 303 297 291 287 286 283 279 278 279 278 278 278 268 253 246 255 272 286 289 282 277 276 275 271 265 263 269 278 284 285 284 289 294 297 293 283 6 353 300 285 64 332 273 256 266 269 266 254 256 268 279 299 332 303 267 312 330 274 224 264 263 236 202 37 68 152 174 192 176 129 94 60 39 10 14 29 26 20 18 8 359
334 333 331 327 323 316 307 301 296 291 289 288 281 274 275 282 287 289 284 260 249 259 268 274 276 273 270 269 267 263 259 259 262 263 263 267 276 275 276 284 287 285 16 47 290 297 343 300 297 314 277 259 290 260 236 231 258 297 332 291 269 311 330 308 253 332 343 21 83 91 91 117 143 142 134 135 118 76 48 40 43 47 41 36 32 19 5
337 335 332 328 323 317 311 304 299 295 290 287 284 280 280 284 285 282 275 255 251 273 274 267 263 263 268 270 267 260 254 252 254 254 249 247 255 263 267 289 317 304 309 306 275 280 289 275 258 278 272 267 329 293 260 243 281 336 339 302 272 305 325 325 356 14 6 345 39 100 93 83 97 98 82 100 119 111 82 61 60 61 54 49 46 35 21
339 335 331 328 324 319 315 309 302 299 295 290 289 287 285 284 283 280 277 270 270 284 286 279 272 269 271 270 263 255 246 237 235 237 235 231 233 246 254 231 197 265 293 310 296 281 282 286 273 271 279 274 279 303 308 316 346 12 351 297 272 282 308 324 1 39 44 315 308 69 87 72 68 79 61 52 89 113 108 85 81 82 70 59 57 54 44
338 336 332 329 326 320 316 312 306 303 301 296 291 287 283 282 282 278 276 282 281 266 266 277 281 279 280 277 270 270 267 247 229 226 227 226 228 239 249 247 243 257 280 296 289 287 292 292 281 276 286 293 286 302 317 317 317 330 301 280 281 283 293 339 13 43 60 310 302 74 94 78 68 75 68 50 57 77 85 84 87 89 82 72 67 64 58
334 333 331 329 326 321 315 311 308 304 303 301 296 289 284 282 279 273 269 272 275 267 262 269 287 300 302 295 284 280 276 264 245 231 224 224 227 232 239 242 245 256 271 272 271 274 274 277 275 264 269 286 294 291 285 269 286 289 270 275 282 280 302 19 32 62 120 245 291 358 90 84 67 65 68 63 60 64 67 67 69 71 70 68 66 60 53
330 330 328 326 324 321 316 310 307 305 305 305 299 289 283 279 276 274 270 260 252 270 289 285 292 301 300 294 282 267 255 251 249 240 227 222 221 222 228 231 232 239 247 253 263 268 259 265 272 266 272 293 295 286 281 263 260 255 257 275 288 300 18 34 39 28 227 184 207 84 91 90 68 53 56 59 61 68 71 68 67 67 64 63 63 57 50
327 325 323 322 321 318 314 311 309 307 306 306 302 293 283 274 267 269 270 256 243 249 282 287 287 290 296 300 293 274 252 244 240 234 229 226 221 218 222 225 225 229 237 246 256 265 264 267 271 267 272 304 312 299 301 289 260 257 273 290 294 309 43 59 58 341 305 130 117 91 88 88 74 60 56 50 49 62 70 67 66 66 63 64 64 58 53
323 321 319 318 315 313 312 310 308 308 308 306 302 295 284 266 241 237 260 271 262 255 273 291 293 294 298 298 290 274 258 248 238 226 220 222 225 221 216 217 220 225 234 245 253 262 275 280 271 257 252 255 275 285 290 289 274 270 287 299 297 331 38 57 57 13 80 103 91 82 89 91 81 69 62 54 49 54 60 61 63 64 62 62 61 55 52
319 316 314 313 311 309 309 305 304 307 306 299 294 292 291 303 214 234 286 316 311 296 287 287 289 294 292 282 277 272 257 241 230 222 212 211 218 220 213 211 215 219 229 241 247 260 275 270 264 269 262 224 219 272 286 281 274 278 300 338 45 40 36 46 39 14 62 136 130 113 101 93 84 73 64 59 54 52 52 54 57 60 65 68 66 63 59
319 315 312 310 307 304 303 301 301 302 295 285 277 273 271 273 274 277 288 302 303 293 285 287 290 298 297 285 303 309 287 248 220 212 207 201 205 211 209 210 216 217 220 226 200 256 266 248 251 273 279 179 176 264 274 257 254 275 306 37 72 57 42 42 38 31 40 178 149 110 88 78 78 77 70 66 62 56 53 53 53 54 60 66 69 69 66
322 318 313 309 306 303 298 296 295 294 291 284 277 272 270 267 269 276 282 283 278 271 279 294 290 287 294 307 319 317 301 262 219 201 195 193 193 195 199 207 216 213 199 163 120 236 256 243 242 256 255 189 194 272 275 272 302 316 337 76 80 64 54 49 46 50 48 39 97 101 99 97 96 95 89 82 75 66 60 58 56 55 53 53 57 58 57
323 320 314 310 308 304 299 297 294 291 288 281 276 278 276 257 242 249 253 254 266 272 264 267 280 281 288 304 312 312 307 281 232 199 183 188 194 194 197 200 202 203 193 168 151 226 250 253 246 235 227 219 230 294 286 301 344 345 3 93 90 74 60 49 43 53 57 48 61 92 104 101 99 99 93 86 81 77 72 66 59 58 56 51 47 44 43
321 318 312 309 308 305 302 297 285 277 276 270 266 281 302 276 239 241 233 232 257 280 258 233 260 285 297 304 313 328 335 318 270 230 206 206 199 189 197 197 191 192 189 173 193 230 241 250 229 197 202 219 124 304 283 292 5 8 14 83 90 81 67 55 44 44 58 61 66 74 78 75 73 73 74 76 77 78 78 74 69 66 63 56 47 40 38
318 313 308 308 306 302 296 280 252 245 257 264 270 290 299 293 282 257 233 234 246 264 289 283 262 278 299 303 304 321 328 318 232 191 294 256 179 123 190 212 195 185 190 201 217 227 227 215 202 191 147 137 187 240 285 346 56 45 31 58 74 78 87 89 79 61 56 61 66 70 72 70 65 59 59 62 63 64 68 72 74 73 71 66 56 44 36
313 307 307 307 300 289 280 259 234 230 243 260 285 297 288 274 263 243 230 233 226 220 247 290 275 273 289 285 276 313 325 300 227 197 182 186 97 144 217 224 204 186 196 209 219 218 188 147 216 198 131 125 166 169 37 41 64 64 40 54 70 79 91 99 100 89 73 64 60 60 64 68 66 60 56 55 52 51 54 56 59 65 73 81 82 67 45
312 309 307 301 289 282 281 250 229 244 258 264 280 289 262 229 233 241 224 206 201 200 212 255 259 254 255 247 260 298 312 275 251 223 157 145 157 227 220 219 212 197 195 195 166 82 59 73 209 137 64 63 78 82 59 49 91 133 81 56 64 71 72 70 72 76 74 65 56 53 55 60 60 56 53 54 52 51 52 53 54 57 64 78 103 118 102
306 302 293 270 255 277 291 284 294 303 287 258 243 254 235 202 220 255 221 194 211 213 214 241 250 248 241 242 259 281 283 271 273 260 185 148 204 248 225 210 187 140 49 23 77 81 93 113 69 42 39 49 57 50 35 52 113 112 82 63 57 63 69 65 61 67 75 78 78 76 71 67 62 57 56 59 58 55 55 54 55 58 58 59 72 91 98
314 305 292 278 285 297 305 311 315 313 296 240 209 226 241 216 213 222 199 213 239 225 206 230 245 237 230 235 251 270 274 272 282 305 303 28 333 258 247 223 113 89 71 338 1 49 137 115 67 43 30 31 27 12 19 44 62 66 67 65 56 55 72 74 71 78 89 95 97 94 83 74 68 64 64 66 66 65 64 59 53 55 57 54 52 51 56
331 326 320 317 313 309 308 306 299 286 275 261 246 249 243 225 220 231 235 247 257 243 220 249 266 255 234 232 243 268 281 287 323 25 33 265 236 228 256 337 44 103 132 167 209 206 126 85 77 62 34 25 29 28 34 41 39 37 54 76 79 74 81 83 78 77 81 84 86 84 77 71 71 71 72 74 75 74 73 69 62 56 52 53 56 52 48
313 303 302 303 302 298 293 290 281 257 248 258 259 262 265 257 228 239 247 252 262 246 179 221 262 284 308 119 152 203 258 265 254 179 182 193 186 159 177 235 205 112 120 149 179 137 71 81 95 91 61 31 67 81 70 56 33 19 27 51 67 70 78 87 88 82 75 72 73 75 76 78 81 83 84 83 81 79 76 73 72 68 57 51 53 52 47
300 286 284 289 294 293 288 288 290 278 276 282 283 288 297 304 255 252 273 275 251 248 179 175 237 295 347 51 107 140 174 203 218 217 183 115 89 154 200 155 92 83 83 78 71 67 64 72 90 99 96 62 68 82 88 94 86 44 19 35 85 93 90 91 91 86 79 73 72 71 70 71 72 73 73 72 70 68 66 63 68 77 74 62 53 45 40
299 282 267 269 288 313 324 319 315 316 322 322 310 310 326 347 2 353 352 0 346 335 348 7 356 347 356 11 19 34 94 174 237 301 102 121 122 200 164 91 83 81 84 68 59 61 63 55 50 73 89 77 60 64 74 78 72 58 42 54 83 93 91 87 88 91 92 92 89 84 77 70 66 66 68 69 70 69 64 54 53 60 65 64 59 48 37
303 304 321 313 309 322 334 323 311 319 325 321 318 328 336 339 341 348 357 355 341 337 350 2 356 349 357 16 23 1 358 8 27 12 301 196 99 64 57 62 67 78 94 79 58 51 77 79 52 47 72 73 59 48 56 63 65 68 71 73 74 73 74 79 84 87 90 91 89 86 83 80 76 71 66 63 63 64 64 61 58 56 56 58 57 50 41
312 320 313 311 310 322 19 339 316 319 325 316 319 325 323 317 322 336 342 338 338 347 355 357 351 347 353 8 27 5 346 355 32 45 261 274 61 64 63 46 29 38 65 70 54 39 64 81 78 66 68 69 64 55 52 49 52 60 66 71 74 75 76 78 79 78 79 81 80 77 76 74 71 70 69 64 59 57 56 58 61 62 62 62 60 56 51
339 339 301 304 301 297 324 297 290 305 315 289 281 290 296 302 314 324 317 312 331 351 352 348 354 0 355 351 350 351 342 343 16 28 24 45 65 69 62 34 28 41 64 77 79 63 44 45 48 51 54 53 51 44 25 28 69 85 80 73 78 81 79 77 77 77 78 79 78 76 75 74 70 70 71 69 65 63 60 58 60 62 63 63 63 60 58
335 332 306 302 293 304 323 331 291 316 321 304 281 277 285 296 313 329 325 322 336 352 352 353 5 14 348 317 320 330 325 338 16 19 13 24 59 74 68 52 48 49 59 79 94 96 76 52 41 36 27 18 24 27 11 7 62 93 95 82 77 78 74 71 75 77 77 78 80 78 75 76 77 78 77 75 71 69 67 62 58 58 61 65 65 60 57
295 245 269 299 264 286 303 332 64 57 326 318 328 325 320 326 342 349 343 337 339 341 337 333 325 355 335 217 142 42 5 4 19 27 26 29 42 53 64 68 68 59 52 72 94 95 81 63 40 28 17 3 11 29 15 340 11 77 89 85 79 79 77 73 72 71 67 70 75 76 75 78 81 81 82 81 75 71 70 69 63 58 56 58 61 61 60
297 305 336 356 10 335 317 351 31 23 327 338 3 350 337 348 3 8 6 353 320 306 305 274 193 28 6 17 49 51 30 5 2 22 34 33 34 44 60 67 71 72 66 70 80 77 65 46 13 16 21 8 358 2 350 327 355 48 72 74 72 75 77 76 76 76 72 70 72 75 81 85 81 77 82 89 88 81 75 72 70 67 63 60 62 66 65
332 357 354 4 13 3 352 5 20 11 352 13 19 342 330 356 6 359 352 346 330 335 14 31 25 23 32 34 31 28 9 337 4 36 43 29 17 38 63 68 74 92 100 92 76 56 48 37 17 14 17 357 327 310 300 310 0 53 68 66 65 70 73 71 71 72 71 70 71 73 75 76 71 68 71 74 74 72 68 62 59 59 62 69 76 77 72
356 354 353 10 18 9 1 8 14 9 15 39 54 356 306 344 341 323 334 359 23 36 36 30 20 30 41 37 17 12 27 31 33 42 46 30 16 38 66 74 72 82 96 100 96 85 58 28 18 6 333 289 260 251 271 314 38 74 76 67 60 58 61 66 72 74 74 74 73 66 63 68 75 76 72 66 58 53 57 57 46 35 38 62 80 83 89